This is the latest recevied weather packets stored in our database for station/object KQ4UPF. If no packets are shown the sender has not sent any weather packets the latest 10 day(s).
| Time | Temp. | Humidity | Pressure | Rain* | Wind** | Luminosity | Snow |
|---|---|---|---|---|---|---|---|
| 1778036992 | 20° C | 76% | 1012.4 hPa | 0 mm | - | 0 W/m² | - |
| 1778036690 | 20° C | 75% | 1012.3 hPa | 0 mm | - | 0 W/m² | - |
| 1778036387 | 20° C | 74% | 1012.4 hPa | 0 mm | - | 0 W/m² | - |
| 1778036083 | 20° C | 74% | 1012.1 hPa | 0 mm | - | 0 W/m² | - |
| 1778035780 | 20° C | 75% | 1012.2 hPa | 0 mm | - | 0 W/m² | - |
| 1778035477 | 20° C | 73% | 1012.3 hPa | 0 mm | - | 0 W/m² | - |
| 1778035172 | 20° C | 74% | 1012.2 hPa | 0 mm | - | 0 W/m² | - |
| 1778034870 | 20° C | 74% | 1011.9 hPa | 0 mm | - | 0 W/m² | - |
| 1778034566 | 20° C | 73% | 1011.8 hPa | 0 mm | - | 0 W/m² | - |
| 1778034264 | 20° C | 72% | 1011.9 hPa | 0 mm | - | 0 W/m² | - |
| 1778033962 | 20.56° C | 70% | 1011.9 hPa | 0 mm | - | 0 W/m² | - |
| 1778033659 | 20.56° C | 72% | 1012 hPa | 0 mm | - | 0 W/m² | - |
| 1778033356 | 20.56° C | 72% | 1012 hPa | 0 mm | - | 0 W/m² | - |
| 1778033054 | 20.56° C | 73% | 1011.9 hPa | 0 mm | - | 0 W/m² | - |
| 1778032751 | 20° C | 73% | 1012.1 hPa | 0 mm | - | 0 W/m² | - |
| 1778032448 | 20.56° C | 72% | 1012.4 hPa | 0 mm | - | 0 W/m² | - |
| 1778032145 | 20.56° C | 73% | 1012.3 hPa | 0 mm | - | 0 W/m² | - |
| 1778031842 | 20.56° C | 66% | 1012.3 hPa | 0 mm | - | 0 W/m² | - |
| 1778031538 | 20.56° C | 69% | 1012.1 hPa | 0 mm | - | 0 W/m² | - |
| 1778031236 | 20.56° C | 69% | 1012 hPa | 0 mm | - | 0 W/m² | - |
| 1778030932 | 21.11° C | 68% | 1012 hPa | 0 mm | - | 0 W/m² | - |
| 1778030629 | 21.11° C | 68% | 1012 hPa | 0 mm | - | 0 W/m² | - |
| 1778030326 | 21.11° C | 65% | 1011.9 hPa | 0 mm | - | 0 W/m² | - |
| 1778030023 | 21.11° C | 67% | 1011.8 hPa | 0 mm | - | 0 W/m² | - |
| 1778029720 | 21.11° C | 68% | 1012 hPa | 0 mm | - | 0 W/m² | - |
* Rain latest hour (hover to see other rain measurements)
** Current wind speed in m/s (hover to see current wind gust speed)